Location: Brotuna
(46.2000°N, 22.6000°E)
Time: 11:11:15
(UTC+00:00)

Cosmos 1356 Rocket - Pass Details

Date: 09 April 2020
Orbit: 542 x 599 km, 81.2° (Epoch: 25 May)

Event Time Altitude Azimuth Distance (km) Brightness Sun altitude
Exits shadow 20:13:48 48° 316° (NW) 775 4.3 -27.8°
Drops below altitude 10° 20:17:21 10° 2° (N) 1,921 6.7 -28.2°
Sets 20:19:36 0° 7° (N) 2,817 7.6 -28.4°
